Location: American Medical Response
(33.3472°N, 96.5511°W)
Time: 04:21:58
(UTC+00:00)

H-2A R/B - Pass Details

Date: 12 July 2022
Orbit: 576 x 652 km, 98.5° (Epoch: 17 August)

Event Time Altitude Azimuth Distance (km) Brightness Sun altitude
Rises 02:17:32 0° 20° (NNE) 2,970 5.7 -8.0°
Reaches altitude 10° 02:19:50 10° 27° (NNE) 2,059 4.8 -8.4°
Maximum altitude 02:24:08 45° 100° (E) 888 2.5 -9.1°
Drops below altitude 10° 02:28:26 10° 173° (S) 2,046 4.3 -9.9°
Sets 02:30:42 0° 180° (S) 2,947 5.2 -10.3°
